Location: Unspecified
(0.0000°N, 0.0000°E)
Time: 00:44:30
(UTC+00:00)

STARLINK-1037 - Pass Details

Date: 04 December 2020
Orbit: 544 x 546 km, 53.0° (Epoch: 16 January)

Event Time Altitude Azimuth Distance (km) Brightness Sun altitude
Rises 18:38:51 0° 353° (N) 2,690 7.0 -11.2°
Reaches altitude 10° 18:41:40 10° 12° (NNE) 1,801 5.9 -11.8°
Enters shadow 18:44:09 18° 50° (NE) 1,389 5.1 -12.4°
